• In Uzbekistan
  • List of Countries
  • For 7 days
  • Water Temperature
  • Satellite Maps
  • Weather Map
  • Weather Widgets
  • user-avatar
    Login

    Hourly Weather San Luis

    Today, 26 March, Sunday

    Time Temperature Precipitation Wind Pressure Humidity
    00:00 +21°C° 0.4 mm 4 mps 696 mmHg 75%
    01:00 +21°C° 0.4 mm 4 mps 696 mmHg 77%
    02:00 +21°C° 0.4 mm 4 mps 696 mmHg 79%
    03:00 +21°C° 0.7 mm 4 mps 696 mmHg 81%
    04:00 +20°C° 0.7 mm 4 mps 695 mmHg 83%
    05:00 +20°C° 0.7 mm 4 mps 695 mmHg 84%
    06:00 +21°C° 0.2 mm 4 mps 696 mmHg 81%
    07:00 +21°C° 0.2 mm 4 mps 696 mmHg 77%
    08:00 +22°C° 0.2 mm 4 mps 696 mmHg 74%
    09:00 +25°C° 0.2 mm 4 mps 697 mmHg 65%
    10:00 +27°C° 0.2 mm 4 mps 697 mmHg 56%
    11:00 +29°C° 0.2 mm 3 mps 697 mmHg 46%
    12:00 +30°C° 0.7 mm 3 mps 697 mmHg 44%
    13:00 +31°C° 0.7 mm 3 mps 697 mmHg 41%
    14:00 +31°C° 0.7 mm 2 mps 696 mmHg 38%
    15:00 +31°C° 0.3 mm 2 mps 696 mmHg 38%
    16:00 +31°C° 0.3 mm 2 mps 696 mmHg 38%
    17:00 +31°C° 0.3 mm 2 mps 695 mmHg 38%
    18:00 +29°C° 0.3 mm 2 mps 695 mmHg 46%
    19:00 +26°C° 0.3 mm 2 mps 696 mmHg 54%
    20:00 +24°C° 0.3 mm 2 mps 696 mmHg 62%
    21:00 +24°C° 0.3 mm 2 mps 696 mmHg 65%
    22:00 +22°C° 0.3 mm 3 mps 697 mmHg 67%
    23:00 +22°C° 0.3 mm 3 mps 697 mmHg 70%

    Tomorrow, 27 March, Monday

    Time Temperature Precipitation Wind Pressure Humidity
    00:00 +22°C° 0.3 mm 3 mps 697 mmHg 73%
    01:00 +22°C° 0.3 mm 3 mps 697 mmHg 76%
    02:00 +22°C° 0.3 mm 3 mps 697 mmHg 79%
    03:00 +21°C° 0.8 mm 3 mps 697 mmHg 80%
    04:00 +21°C° 0.8 mm 3 mps 697 mmHg 82%
    05:00 +20°C° 0.8 mm 4 mps 697 mmHg 83%
    06:00 +21°C° 0.2 mm 4 mps 698 mmHg 81%
    07:00 +22°C° 0.2 mm 4 mps 698 mmHg 80%
    08:00 +22°C° 0.2 mm 4 mps 698 mmHg 78%
    09:00 +25°C° 0.5 mm 3 mps 699 mmHg 69%
    10:00 +27°C° 0.5 mm 3 mps 699 mmHg 60%
    11:00 +29°C° 0.5 mm 3 mps 700 mmHg 51%
    12:00 +29°C° 0.4 mm 3 mps 699 mmHg 48%
    13:00 +30°C° 0.4 mm 3 mps 699 mmHg 45%
    14:00 +31°C° 0.4 mm 3 mps 699 mmHg 42%
    15:00 +31°C° 0.1 mm 3 mps 698 mmHg 41%
    16:00 +31°C° 0.1 mm 3 mps 698 mmHg 40%
    17:00 +31°C° 0.1 mm 2 mps 698 mmHg 40%
    18:00 +28°C° 0.3 mm 3 mps 698 mmHg 48%
    19:00 +26°C° 0.3 mm 3 mps 698 mmHg 57%
    20:00 +24°C° 0.3 mm 3 mps 698 mmHg 66%
    21:00 +24°C° 0.2 mm 3 mps 698 mmHg 67%
    22:00 +24°C° 0.2 mm 3 mps 699 mmHg 68%
    23:00 +24°C° 0.2 mm 3 mps 699 mmHg 69%

    Day after tomorrow, 28 March, Tuesday

    Time Temperature Precipitation Wind Pressure Humidity
    00:00 +22°C° 0.5 mm 4 mps 699 mmHg 73%
    01:00 +22°C° 0.5 mm 4 mps 699 mmHg 77%
    02:00 +21°C° 0.5 mm 5 mps 699 mmHg 81%
    03:00 +21°C° 0.8 mm 4 mps 698 mmHg 81%
    04:00 +21°C° 0.8 mm 4 mps 698 mmHg 82%
    05:00 +21°C° 0.8 mm 4 mps 698 mmHg 82%
    06:00 +22°C° 0.3 mm 5 mps 699 mmHg 80%
    07:00 +22°C° 0.3 mm 5 mps 699 mmHg 77%
    08:00 +23°C° 0.3 mm 6 mps 700 mmHg 75%
    09:00 +26°C° 0.3 mm 6 mps 700 mmHg 67%
    10:00 +28°C° 0.3 mm 7 mps 700 mmHg 60%
    11:00 +30°C° 0.3 mm 7 mps 700 mmHg 52%
    12:00 +30°C° 1.2 mm 7 mps 700 mmHg 50%
    13:00 +32°C° 1.2 mm 6 mps 699 mmHg 49%
    14:00 +32°C° 1.2 mm 6 mps 699 mmHg 48%
    15:00 +32°C° 1.3 mm 6 mps 698 mmHg 49%
    16:00 +30°C° 1.3 mm 5 mps 698 mmHg 50%
    17:00 +30°C° 1.3 mm 5 mps 697 mmHg 51%
    18:00 +28°C° 0.7 mm 5 mps 698 mmHg 58%
    19:00 +26°C° 0.7 mm 5 mps 698 mmHg 65%
    20:00 +25°C° 0.7 mm 4 mps 698 mmHg 72%
    21:00 +23°C° 0.2 mm 4 mps 698 mmHg 74%
    22:00 +23°C° 0.2 mm 4 mps 698 mmHg 76%
    23:00 +22°C° 0.2 mm 4 mps 698 mmHg 77%

    29 March, Wednesday

    Time Temperature Precipitation Wind Pressure Humidity
    00:00 +22°C° 0.9 mm 5 mps 698 mmHg 79%
    01:00 +22°C° 0.9 mm 5 mps 698 mmHg 80%
    02:00 +22°C° 0.9 mm 6 mps 697 mmHg 81%
    03:00 +21°C° 0.6 mm 5 mps 697 mmHg 82%
    04:00 +21°C° 0.6 mm 5 mps 697 mmHg 83%
    05:00 +21°C° 0.6 mm 5 mps 697 mmHg 85%
    06:00 +22°C° 0.4 mm 5 mps 697 mmHg 83%
    07:00 +22°C° 0.4 mm 6 mps 697 mmHg 81%
    08:00 +23°C° 0.4 mm 6 mps 698 mmHg 78%
    09:00 +24°C° 0.4 mm 7 mps 698 mmHg 73%
    10:00 +26°C° 0.4 mm 8 mps 698 mmHg 67%
    11:00 +28°C° 0.4 mm 8 mps 698 mmHg 62%
    12:00 +28°C° 1.4 mm 8 mps 697 mmHg 60%
    13:00 +29°C° 1.4 mm 8 mps 697 mmHg 57%
    14:00 +31°C° 1.4 mm 8 mps 696 mmHg 55%
    15:00 +29°C° 2 mm 7 mps 696 mmHg 58%
    16:00 +29°C° 2 mm 7 mps 695 mmHg 60%
    17:00 +28°C° 2 mm 6 mps 695 mmHg 63%
    18:00 +27°C° 3.1 mm 5 mps 695 mmHg 69%
    19:00 +25°C° 3.1 mm 4 mps 695 mmHg 75%
    20:00 +24°C° 3.1 mm 3 mps 695 mmHg 81%
    21:00 +22°C° 2.5 mm 4 mps 695 mmHg 83%
    22:00 +22°C° 2.5 mm 4 mps 695 mmHg 84%
    23:00 +22°C° 2.5 mm 4 mps 695 mmHg 85%

    30 March, Thursday

    Time Temperature Precipitation Wind Pressure Humidity
    00:00 +21°C° 2.1 mm 4 mps 695 mmHg 86%
    01:00 +21°C° 2.1 mm 4 mps 694 mmHg 86%
    02:00 +21°C° 2.1 mm 4 mps 694 mmHg 87%
    03:00 +21°C° 2.4 mm 3 mps 694 mmHg 88%
    04:00 +21°C° 2.4 mm 3 mps 694 mmHg 89%
    05:00 +20°C° 2.4 mm 2 mps 694 mmHg 91%
    06:00 +20°C° 0.3 mm 3 mps 694 mmHg 89%
    07:00 +21°C° 0.3 mm 3 mps 695 mmHg 87%
    08:00 +21°C° 0.3 mm 3 mps 695 mmHg 85%
    09:00 +22°C° 0.3 mm 4 mps 696 mmHg 81%
    10:00 +22°C° 0.3 mm 5 mps 696 mmHg 78%
    11:00 +23°C° 0.3 mm 6 mps 697 mmHg 74%
    12:00 +23°C° 0.3 mm 7 mps 696 mmHg 72%
    13:00 +23°C° 0.3 mm 7 mps 696 mmHg 71%
    14:00 +23°C° 0.3 mm 8 mps 696 mmHg 69%
    15:00 +22°C° 0.1 mm 7 mps 696 mmHg 71%
    16:00 +21°C° 0.1 mm 7 mps 696 mmHg 73%
    17:00 +21°C° 0.1 mm 7 mps 697 mmHg 74%
    18:00 +20°C° 0.1 mm 6 mps 697 mmHg 78%
    19:00 +20°C° 0.1 mm 5 mps 698 mmHg 81%
    20:00 +19°C° 0.1 mm 5 mps 698 mmHg 84%
    21:00 +19°C° 0 mm 4 mps 699 mmHg 86%
    22:00 +19°C° 0 mm 4 mps 699 mmHg 88%
    23:00 +18°C° 0 mm 3 mps 700 mmHg 90%

    31 March, Friday

    Time Temperature Precipitation Wind Pressure Humidity
    00:00 +18°C° 0 mm 3 mps 700 mmHg 90%
    01:00 +18°C° 0 mm 3 mps 700 mmHg 90%
    02:00 +18°C° 0 mm 3 mps 700 mmHg 90%
    03:00 +18°C° 0 mm 3 mps 700 mmHg 90%
    04:00 +18°C° 0 mm 3 mps 700 mmHg 90%
    05:00 +17°C° 0 mm 3 mps 700 mmHg 90%
    06:00 +18°C° 0 mm 4 mps 700 mmHg 88%
    07:00 +18°C° 0 mm 4 mps 701 mmHg 86%
    08:00 +18°C° 0 mm 4 mps 701 mmHg 85%
    09:00 +19°C° 0 mm 4 mps 701 mmHg 80%
    10:00 +19°C° 0 mm 4 mps 702 mmHg 76%
    11:00 +20°C° 0 mm 4 mps 702 mmHg 71%
    12:00 +21°C° 0 mm 4 mps 701 mmHg 69%
    13:00 +21°C° 0 mm 4 mps 701 mmHg 67%
    14:00 +22°C° 0 mm 5 mps 701 mmHg 66%
    15:00 +21°C° 0 mm 5 mps 701 mmHg 68%
    16:00 +21°C° 0 mm 6 mps 700 mmHg 70%
    17:00 +20°C° 0 mm 6 mps 700 mmHg 72%
    18:00 +19°C° 0 mm 6 mps 700 mmHg 76%
    19:00 +19°C° 0 mm 6 mps 701 mmHg 79%
    20:00 +17°C° 0 mm 5 mps 701 mmHg 82%
    21:00 +17°C° 0 mm 5 mps 701 mmHg 83%
    22:00 +16°C° 0 mm 5 mps 701 mmHg 84%
    23:00 +17°C° 0 mm 4 mps 702 mmHg 85%
    Show more